This demonstration page uses our WeatherBlox Daily Observations layout. Learn more.

38.89511, -77.03637

Hourly Observations for December 31, 2014

Temp ( °F °C ) Dew Point ( °F °C ) Humidity (%) Winds ( mph kmh ) Pressure ( in mb ) Visibility ( mi km ) Precip ( " mm )
12:52 am 00:52 Clear 30 -1.1 19 -7.2 64 64 WSW 5 7 30.42 1030 10 16.0934 0 0
1:52 am 01:52 Clear 31 -0.6 16 -8.9 54 54 SW 3 6 30.42 1030 10 16.0934 0 0
2:52 am 02:52 Partly Cloudy 31 -0.6 17 -8.3 56 56 NW 3 6 30.42 1030 10 16.0934 0 0
3:52 am 03:52 Mostly Cloudy 30 -1.1 16 -8.9 56 56 WSW 3 6 30.42 1030 10 16.0934 0 0
4:52 am 04:52 Mostly Cloudy 33 0.6 14 -10 45 45 WNW 9 15 30.41 1030 10 16.0934 0 0
5:52 am 05:52 Mostly Cloudy 32 0 14 -10 47 47 NNW 8 13 30.4 1030 10 16.0934 0 0
6:52 am 06:52 Partly Cloudy 32 0 15 -9.4 50 50 NW 8 13 30.43 1031 10 16.0934 0 0
7:52 am 07:52 Mostly Cloudy 32 0 15 -9.4 50 50 NNW 9 15 30.45 1031 10 16.0934 0 0
8:52 am 08:52 Mostly Cloudy 33 0.6 15 -9.4 47 47 NNW 9 15 30.45 1031 10 16.0934 0 0
9:52 am 09:52 Partly Cloudy 34 1.1 14 -10 44 44 NNW 10 17 30.47 1032 10 16.0934 0 0
10:52 am 10:52 Partly Cloudy 36 2.2 15 -9.4 42 42 NNW 10 17 30.45 1031 10 16.0934 0 0
11:52 am 11:52 Partly Cloudy 36 2.2 11 -11.7 35 35 VRB 6 9 30.41 1030 10 16.0934 0 0
12:52 pm 12:52 Mostly Cloudy 37 2.8 9 -12.8 31 31 WNW 13 20 30.39 1029 10 16.0934 0 0
1:52 pm 13:52 Mostly Cloudy 38 3.3 8 -13.3 29 29 W 7 11 30.37 1029 10 16.0934 0 0
2:52 pm 14:52 Partly Cloudy 38 3.3 7 -13.9 27 27 W 8 13 30.35 1028 10 16.0934 0 0
3:52 pm 15:52 Mostly Sunny 39 3.9 6 -14.4 25 25 WNW 6 9 30.35 1028 10 16.0934 0 0
4:52 pm 16:52 Mostly Sunny 36 2.2 6 -14.4 28 28 WSW 6 9 30.34 1027 10 16.0934 0 0
5:52 pm 17:52 Clear 36 2.2 7 -13.9 30 30 SW 3 6 30.32 1027 10 16.0934 0 0
6:52 pm 18:52 Clear 34 1.1 10 -12.2 37 37 SSW 5 7 30.31 1027 10 16.0934 0 0
7:52 pm 19:52 Clear 34 1.1 12 -11.1 40 40 SW 3 6 30.31 1026 10 16.0934 0 0
8:52 pm 20:52 Clear 33 0.6 11 -11.7 40 40 WSW 3 6 30.29 1026 10 16.0934 0 0
9:52 pm 21:52 Clear 33 0.6 12 -11.1 42 42 S 6 9 30.27 1025 10 16.0934 0 0
10:52 pm 22:52 Clear 31 -0.6 15 -9.4 52 52 S 6 9 30.26 1025 10 16.0934 0 0
11:52 pm 23:52 Clear 32 0 17 -8.3 54 54 WSW 3 6 30.26 1025 10 16.0934 0 0

Powered by AerisWeather